Location: Washington
(38.8950°N, 77.0370°W)
Time: 04:07:48
(UTC-04:00)

IDEFIX/ARIANE 42P - Visible Passes

Search period start: 20 October 2014 00:00
Search period end: 30 October 2014 00:00
Orbit: 786 x 803 km, 98.3° (Epoch: 19 October)

Date Brightness Start Highest point End Pass type
(mag) Time Alt. Az. Time Alt. Az. Time Alt. Az.
20 Oct 3.8 19:35:56 21° ENE 19:36:16 21° ENE 19:40:09 10° NNE visible
20 Oct 3.8 21:16:46 39° WNW 21:16:46 39° WNW 21:20:36 10° NNW visible
21 Oct 4.3 19:07:38 11° ENE 19:08:31 12° ENE 19:10:22 10° NE visible
21 Oct 3.0 20:48:28 57° NNW 20:48:28 57° NNW 20:52:38 10° NNW visible
22 Oct 2.9 20:20:10 46° NE 20:20:10 46° NE 20:24:22 10° N visible
22 Oct 5.2 22:01:01 15° WNW 22:01:01 15° WNW 22:02:42 10° NW visible
23 Oct 3.5 19:51:52 28° ENE 19:51:52 28° ENE 19:55:48 10° N visible
23 Oct 4.5 21:32:43 26° WNW 21:32:43 26° WNW 21:35:32 10° NNW visible
24 Oct 4.1 19:23:34 17° ENE 19:23:34 17° ENE 19:26:42 10° NNE visible
24 Oct 3.7 21:04:25 39° NW 21:04:25 39° NW 21:07:47 10° NNW visible
25 Oct 3.2 20:36:07 44° N 20:36:07 44° N 20:39:41 10° N visible
26 Oct 3.4 20:07:48 33° NE 20:07:48 33° NE 20:11:17 10° N visible
26 Oct 5.1 21:48:38 17° NW 21:48:38 17° NW 21:50:18 10° NW visible
27 Oct 3.9 19:39:30 21° NE 19:39:30 21° NE 19:42:31 10° NNE visible
27 Oct 4.4 21:20:20 26° NW 21:20:20 26° NW 21:22:49 10° NNW visible
28 Oct 4.3 19:11:12 13° NE 19:11:12 13° NE 19:12:57 10° NE visible
28 Oct 3.8 20:52:02 33° NNW 20:52:02 33° NNW 20:54:54 10° NNW visible
29 Oct 3.6 20:23:43 32° NNE 20:23:43 32° NNE 20:26:40 10° N visible
29 Oct 5.5 22:04:33 11° NW 22:04:33 11° NW 22:04:47 10° NW visible
